星链-1512 (STARLINK-1512 )

导读

STARLINK-1512是美国太空探索技术公司(SpaceX)星链(Starlink)项目的卫星,于2020年6月13日发射升空。作为星链星座组网的成员,它主要服务于低轨卫星互联网项目,为全球提供高速宽带互联网服务,尤其覆盖偏远地区与网络基础设施薄弱区域,推动全球互联覆盖的拓展。

Basic Information
目录编号:
45785
目录名称:
STARLINK-1512
国际标识:
2020-038BH
轨道中心:
EARTH
卫星名称:
星链-1512
卫星全名:
星链-1512 (STARLINK-1512 )
卫星状态:
已陨落 最后检测时间 2024-12-10
发射日期:
2020-06-13 UTC
国别 :
美国 (US)
星等 :
--
Orbit Information
数据来源 国际轨道数据
星历时间: 2024-12-11T01:34:55+0800
轨道信息已过期550天
半长轴: 6543.395km
偏心率: 0.0003053
轨道倾角: 53.030°
近地点辐角 355.166°
升交点赤经 16.750°
平近点角 105.471°
近地点: 163.262km
远地点: 167.258km
周期: 87.794分钟
每日圈数: 16.402048
Detailed Information
固有亮度:
5
最大亮度:
2.5
卫星平台:
Starlink V1.0
覆盖范围:
全球
运营商:
太空探索技术公司
运营商所在国:
美国
制造商(研发单位):
太空探索技术公司
制造商所在国:
美国
使用方式:
暂无
Satellite Introduction
星链(Starlink)计划是由太空探索技术公司(SpaceX)提出的一个巨型低轨卫星互联网星座项目,计划在2019年至2024年间在太空搭建由约1.2万颗卫星组成的“星链”网络,其中1584颗将部署在地球上空550千米处的近地轨道,并从2020年开始工作。该卫星仍在工作。